GFSFLT1_500_spd_057.txt.gz
Wind_Speed
33 31 27 24 25 24 24 30 35 33 33 32 30 29 27 26 21 20 18 16 17 18 16 14 13 11 9 7 6 5 5 7 6
33 30 28 26 25 27 26 29 33 33 32 32 31 31 30 26 23 21 19 18 20 19 18 16 13 12 9 7 5 3 2 3 4
37 32 34 30 27 29 28 30 36 37 35 34 34 33 30 27 25 24 22 20 21 20 19 16 14 12 9 7 6 3 2 2 1
41 34 37 32 30 28 31 32 34 35 34 34 36 34 33 31 28 26 23 21 23 22 20 17 14 12 10 10 9 7 6 6 6
46 40 38 34 30 29 31 32 33 32 33 34 35 36 34 31 31 30 25 24 24 25 22 19 17 15 14 13 12 11 10 9 8
49 45 41 38 34 33 31 32 32 33 31 30 32 35 34 33 32 30 27 26 27 26 24 22 20 17 16 16 15 13 11 11 10
52 52 47 43 35 35 32 31 33 32 33 33 32 32 34 33 32 30 29 29 30 28 27 25 20 18 19 17 16 16 13 13 11
56 55 52 46 38 36 33 32 32 32 33 34 32 31 32 33 35 35 33 31 30 30 26 22 21 20 17 15 14 14 13 11 10
59 52 57 49 47 39 39 32 29 31 32 33 33 30 30 35 36 35 33 31 31 28 25 22 20 18 15 15 16 15 13 9 10
63 57 55 55 49 40 37 32 29 28 31 33 34 33 32 33 35 35 35 34 30 27 25 25 21 18 16 17 16 13 12 10 10
62 58 54 57 50 44 42 37 32 29 31 32 36 37 36 34 34 35 34 31 28 29 27 25 22 18 16 14 14 14 12 11 13
63 61 58 57 54 48 37 37 38 31 33 32 37 39 36 34 34 33 32 29 31 30 28 26 23 21 17 17 15 14 13 13 16
59 58 58 56 55 49 44 37 39 37 37 30 33 35 35 36 36 34 32 33 35 34 31 29 25 20 20 19 17 15 14 14 19
42 52 55 47 40 41 40 45 41 44 40 29 27 31 36 38 37 34 36 38 37 34 31 28 24 23 22 21 18 18 17 15 15
39 47 38 40 41 41 45 48 46 40 41 32 27 28 36 39 37 36 38 37 36 34 31 28 27 25 24 21 21 21 20 18 17
41 40 37 39 38 35 44 52 46 43 42 36 31 31 33 38 38 39 39 38 37 34 33 31 29 27 27 26 26 27 26 26 24
45 44 44 44 42 40 46 47 47 42 41 33 31 31 28 31 36 40 40 40 39 40 40 37 38 33 33 33 33 32 33 33 33
50 47 48 46 48 46 48 48 40 49 41 35 34 33 32 28 28 34 45 44 41 40 44 45 41 41 41 40 41 41 42 42 40
53 52 48 48 48 48 43 43 44 38 44 44 41 40 39 38 40 34 39 45 46 43 43 41 45 44 47 48 48 50 49 47 44
56 55 54 52 49 51 52 48 46 47 47 51 50 49 49 46 50 50 54 44 45 48 48 46 49 52 53 55 50 56 57 50 49

GFSFLT1_500_spd_060.txt.gz
Wind_Speed
38 39 35 31 28 29 27 34 38 37 35 33 31 30 29 29 24 22 21 18 17 17 16 14 14 13 11 10 9 8 7 7 6
43 37 35 31 29 28 28 32 36 38 37 37 34 33 32 30 26 23 20 20 20 18 16 15 14 13 11 9 8 7 6 5 5
42 40 38 33 30 28 29 31 38 40 41 39 38 37 35 33 29 26 25 23 21 20 19 17 15 14 12 10 8 7 4 2 2
44 43 39 34 31 30 30 33 37 39 42 41 39 37 37 35 31 29 29 23 23 21 20 20 18 16 14 13 11 9 7 6 3
45 46 42 37 33 30 30 30 34 39 43 41 38 37 37 35 34 32 30 26 25 24 22 22 20 18 17 16 14 13 11 10 7
51 50 46 43 42 37 31 30 31 35 41 39 39 39 38 37 35 33 30 28 27 25 25 23 22 20 20 19 17 16 14 13 11
62 62 54 49 45 41 36 32 30 32 38 39 39 40 40 38 35 32 31 31 28 28 27 26 25 24 23 20 19 17 16 16 14
62 63 59 54 46 43 39 35 32 33 36 40 40 40 40 38 37 35 35 33 30 28 28 28 27 26 23 20 19 18 17 17 15
61 64 62 57 52 47 43 38 34 31 36 36 35 36 36 38 41 39 36 35 32 30 27 30 29 26 24 22 19 20 17 14 13
60 65 63 60 57 50 45 38 37 35 34 35 35 34 35 36 38 38 37 36 34 29 28 31 29 26 25 21 21 18 14 13 13
58 65 65 63 59 51 45 41 38 37 32 31 34 35 36 35 34 36 37 37 34 31 30 30 28 26 25 22 20 16 15 13 12
56 65 65 62 59 54 50 42 40 36 31 28 31 34 36 34 31 35 37 37 36 34 31 30 28 27 25 20 18 17 15 13 12
54 65 64 63 60 55 56 48 41 39 36 33 29 27 32 34 34 35 35 37 37 35 33 33 31 27 23 22 20 16 14 13 14
49 59 62 60 61 54 56 51 44 43 39 34 31 33 31 35 36 36 36 38 39 37 35 34 31 28 26 24 21 18 14 13 13
49 50 53 59 60 56 60 58 46 42 42 38 39 37 33 32 37 37 39 39 37 36 35 34 32 29 27 24 22 21 16 14 14
50 48 50 59 62 60 62 60 54 49 45 45 43 41 39 33 34 38 39 39 37 36 35 33 30 29 28 27 26 25 23 20 19
42 43 43 50 59 59 61 57 53 53 57 51 52 47 44 36 34 37 38 39 37 35 35 33 31 31 30 30 30 30 29 28 25
39 41 42 47 56 55 56 55 58 53 56 59 54 51 46 36 31 36 38 40 39 38 37 36 36 35 35 35 36 35 35 34 31
42 45 46 45 48 49 53 56 55 57 59 57 55 53 43 39 37 38 41 43 42 40 38 36 36 38 41 41 43 42 41 41 40
46 50 50 49 48 50 53 49 44 54 59 56 52 51 41 37 39 37 39 44 43 46 45 47 45 41 40 46 50 48 45 48 47

GFSFLT1_500_spd_063.txt.gz
Wind_Speed
33 33 29 26 22 22 23 22 26 32 30 31 30 29 27 26 23 20 21 19 18 17 16 15 14 13 11 8 7 5 3 4 5
38 37 37 30 26 24 27 25 25 31 34 34 33 31 31 29 26 22 20 19 20 19 18 17 16 14 11 9 7 6 4 4 3
43 29 41 35 30 29 28 25 27 30 35 36 36 35 34 33 30 26 24 22 21 20 20 20 18 16 13 10 7 6 4 2 1
45 43 40 36 35 33 31 28 28 30 34 38 38 36 35 34 31 29 28 25 22 22 22 22 21 18 15 12 10 9 7 6 4
46 45 36 37 39 36 33 30 27 29 32 36 39 37 37 35 35 33 31 27 24 23 22 24 23 20 17 15 14 13 11 10 9
48 47 40 44 41 42 35 32 28 27 28 32 38 39 39 38 36 33 31 29 27 25 24 25 24 21 19 18 17 15 14 13 13
44 48 48 42 46 47 39 35 29 26 24 28 34 40 40 39 36 33 32 32 30 27 26 26 25 24 22 20 18 16 17 17 17
45 49 46 53 51 50 43 40 33 30 28 28 30 36 38 37 36 36 35 35 32 29 28 27 27 25 22 20 18 17 19 19 19
58 64 62 63 64 55 47 41 38 34 30 27 29 32 33 35 38 38 36 34 33 30 29 28 28 27 25 22 19 19 20 18 17
55 61 65 63 58 57 52 44 41 34 33 30 30 30 35 36 37 38 38 37 36 33 31 30 28 28 27 23 20 20 20 17 15
47 48 60 64 62 61 55 48 45 39 38 32 27 28 34 37 36 35 37 39 37 36 35 32 30 29 28 24 21 20 19 17 15
55 49 52 63 65 65 61 55 50 45 39 33 30 28 32 33 34 33 34 35 36 37 37 33 29 29 27 24 22 21 20 17 14
59 53 49 61 64 64 63 58 52 49 42 37 30 27 25 29 30 32 31 31 34 37 38 35 32 29 27 25 24 22 20 17 14
53 55 52 54 62 63 61 59 54 50 43 36 27 29 27 27 28 30 31 31 32 35 36 36 33 30 30 26 25 23 21 18 15
54 51 54 52 58 64 61 60 57 51 46 38 39 35 33 29 27 28 34 33 33 31 33 34 34 32 31 28 26 24 23 20 17
55 52 50 52 55 61 61 64 61 55 50 47 45 40 38 37 31 29 31 34 34 33 32 33 34 34 32 29 27 25 25 23 20
52 53 53 48 52 58 69 66 62 58 59 52 45 45 44 41 37 33 30 30 35 35 34 34 35 34 32 32 30 29 29 28 24
53 51 51 52 46 54 63 65 60 61 59 56 48 50 49 46 41 38 32 29 36 35 35 36 36 35 35 34 33 31 31 32 32
50 49 47 47 49 48 56 59 64 64 63 60 55 50 52 53 46 45 39 34 33 37 38 37 37 37 39 42 40 38 36 36 36
50 46 44 42 47 49 51 57 63 63 64 60 61 57 56 56 55 52 46 37 35 38 37 37 38 41 42 41 39 41 39 40 40

GFSFLT1_500_spd_069.txt.gz
Wind_Speed
25 30 31 27 17 15 15 13 10 14 21 20 21 22 23 20 18 19 17 15 13 12 11 11 10 7 6 4 3 0 2 3 3
30 32 33 32 29 19 18 17 14 12 18 23 23 25 25 23 21 19 20 20 18 16 14 13 11 9 7 5 4 1 2 3 2
33 35 36 40 32 34 27 20 19 16 16 20 25 26 26 25 24 23 23 22 22 21 18 16 14 11 9 8 6 4 3 3 1
27 30 35 31 46 35 27 28 26 18 17 18 23 25 25 26 24 23 23 21 23 24 22 19 18 15 13 11 9 7 6 5 2
26 25 28 39 32 30 28 33 28 20 16 19 22 27 29 29 28 26 25 23 22 22 23 22 21 17 15 14 11 9 9 8 5
28 27 29 30 37 34 31 32 30 24 14 15 20 24 30 30 29 27 26 25 24 22 21 21 21 20 19 16 14 12 11 11 8
35 26 27 27 33 20 26 32 29 25 17 14 15 20 27 32 31 30 29 28 27 25 22 21 22 22 21 19 16 14 13 13 11
34 32 29 31 34 31 36 34 36 25 25 17 13 14 19 28 34 34 34 30 28 28 25 23 23 22 22 20 18 16 16 15 13
39 31 41 27 36 36 38 35 51 29 25 22 16 15 17 21 29 34 33 33 31 29 28 26 25 21 22 21 19 19 18 17 15
48 38 40 38 41 30 26 29 26 39 33 27 23 18 13 16 21 29 34 34 32 29 28 29 25 23 22 21 22 20 19 19 17
59 56 45 49 44 42 38 41 37 46 39 44 32 25 16 14 16 21 30 34 30 29 29 29 29 27 25 24 23 22 21 20 18
65 66 58 51 53 48 44 44 42 37 25 52 30 25 20 12 11 15 23 27 27 29 29 29 28 28 27 25 24 24 24 22 19
69 66 66 65 57 57 59 56 51 46 46 36 22 25 21 18 16 15 18 25 27 28 28 30 32 30 28 27 27 27 25 23 21
61 64 58 59 59 58 62 62 53 36 29 31 35 28 24 20 18 17 17 24 26 26 27 29 32 32 31 29 29 28 27 25 23
62 63 61 61 56 65 63 63 53 51 41 45 36 32 29 25 22 20 20 21 24 24 25 25 26 29 31 30 30 29 28 26 25
70 58 62 66 48 65 61 66 65 65 56 30 36 36 35 31 28 26 24 25 25 25 25 25 24 24 26 30 32 31 31 29 27
84 71 55 68 68 62 55 57 58 62 60 52 47 42 39 38 34 30 27 26 25 24 25 25 26 26 24 27 31 33 33 33 31
81 88 71 64 66 55 59 61 59 61 58 52 50 47 46 45 40 37 34 32 29 27 26 25 27 30 31 31 30 32 34 34 34
75 83 86 73 63 52 49 60 62 57 56 53 52 50 50 49 45 44 41 39 35 31 29 28 28 31 33 35 33 34 35 33 35
76 75 67 67 77 65 59 63 60 53 49 48 51 53 53 50 47 49 47 43 40 38 34 32 32 29 32 35 36 37 37 36 36

GFSFLT1_500_spd_072.txt.gz
Wind_Speed
15 22 15 21 18 18 20 19 18 24 22 21 22 26 24 20 19 19 18 15 13 13 16 14 10 6 3 2 2 4 5 6 5
25 19 18 22 24 20 22 23 23 23 26 24 24 27 28 24 20 19 19 19 18 15 16 15 13 9 6 2 1 3 3 3 4
10 12 15 17 22 29 26 24 26 27 30 29 27 28 28 28 25 23 22 20 20 18 16 14 14 10 8 5 2 1 1 2 2
26 17 6 12 20 31 35 29 25 24 25 28 29 27 28 29 28 25 24 22 22 21 19 17 16 13 11 8 6 5 3 3 2
29 27 20 15 12 18 31 33 30 25 24 24 28 32 29 28 29 29 27 25 22 21 20 20 18 16 13 11 10 8 7 7 6
34 30 23 20 14 16 33 38 38 31 25 26 26 29 32 30 30 30 27 27 26 24 22 22 22 19 17 15 15 13 11 10 9
33 33 28 29 23 23 24 33 41 33 29 29 29 27 31 33 30 29 31 31 30 29 26 24 22 21 20 20 18 16 14 12 12
33 36 37 39 31 24 24 31 36 43 41 35 31 28 29 31 34 34 33 34 32 30 29 26 24 24 22 20 19 18 16 15 14
33 36 40 37 30 20 19 32 34 34 38 36 33 27 27 29 29 34 34 33 32 33 31 28 26 24 22 20 19 20 20 17 16
38 42 33 37 43 43 37 39 39 44 40 36 32 30 26 28 28 29 34 35 34 32 31 31 28 26 24 21 21 22 22 20 19
47 44 50 40 33 24 45 40 45 47 42 39 37 31 29 27 29 30 31 35 35 33 33 32 30 29 27 26 24 23 24 24 22
59 51 50 56 41 40 33 34 38 40 46 51 42 37 33 30 26 27 30 32 34 35 35 34 31 31 31 28 27 26 26 27 23
67 58 55 56 52 50 42 38 39 27 41 49 37 35 36 33 28 25 24 30 34 35 36 36 36 34 33 31 31 30 28 27 25
70 65 61 57 57 56 54 55 49 38 37 31 41 52 49 41 30 26 25 29 34 34 34 36 35 33 33 32 32 32 32 29 26
77 72 66 66 62 59 56 55 60 53 51 43 43 48 36 38 32 28 26 28 33 34 34 34 32 32 34 34 34 35 34 32 29
80 81 77 66 71 73 70 69 68 64 52 46 29 25 39 43 42 37 28 26 27 31 33 34 32 32 32 33 36 37 37 35 33
82 82 85 73 71 65 69 72 72 66 53 52 48 41 40 42 41 29 34 32 27 27 31 34 32 31 31 32 35 35 36 36 37
83 85 88 87 73 63 72 76 64 61 56 52 47 48 45 56 48 47 44 38 34 30 30 34 32 32 34 35 33 32 36 38 38
80 83 87 90 87 72 64 59 75 59 68 52 54 59 55 43 43 47 42 39 41 33 32 32 30 33 34 35 35 34 33 33 36
78 82 81 85 90 88 72 68 62 60 52 55 54 46 52 55 55 50 48 43 37 37 38 34 34 31 29 30 31 34 34 35 36

GFSFLT1_500_spd_075.txt.gz
Wind_Speed
16 26 20 15 16 18 17 19 23 24 22 22 25 26 23 22 20 19 17 16 14 13 13 12 11 9 6 5 5 6 7 7 8
23 16 24 16 8 15 20 20 22 26 28 27 25 29 27 24 23 21 20 19 18 16 15 15 13 11 8 6 6 4 6 6 5
28 24 20 16 15 19 20 19 19 23 29 28 31 33 32 27 25 25 23 21 21 20 19 18 15 12 8 7 8 5 5 5 5
31 29 28 22 24 21 30 23 20 18 21 28 27 29 33 33 28 26 25 23 23 22 20 19 17 13 10 8 7 6 5 5 4
33 31 33 32 31 31 34 34 29 23 21 22 29 29 31 32 34 32 29 27 25 24 23 21 19 15 11 10 9 7 6 6 5
35 31 32 33 37 33 31 31 35 34 30 26 26 33 33 34 34 34 32 30 28 26 25 24 22 19 16 15 12 11 9 8 9
41 35 36 35 32 32 34 33 40 41 37 34 32 31 35 37 37 36 36 35 34 30 28 27 25 23 21 19 17 16 14 13 11
45 40 41 40 33 35 35 35 36 45 41 31 35 34 34 38 41 40 40 39 37 34 31 28 27 26 23 22 21 20 18 18 16
47 46 44 43 38 39 37 33 41 44 45 45 43 40 36 38 42 44 43 42 41 39 35 32 29 26 25 24 23 23 22 21 20
50 43 45 47 44 41 40 32 38 42 47 49 47 42 40 42 41 43 46 46 45 42 39 37 33 31 28 24 23 23 24 24 23
55 55 49 50 50 49 47 40 37 43 51 52 57 45 44 44 42 41 44 48 46 45 43 40 37 35 33 30 26 26 25 25 25
56 57 56 55 53 54 47 49 42 43 44 45 50 45 46 43 43 41 40 43 47 47 46 43 40 38 37 33 31 30 28 26 24
61 56 61 56 57 54 52 46 43 49 52 51 50 49 47 46 37 37 35 38 44 49 48 47 45 42 40 37 35 34 32 30 26
64 65 62 66 60 60 57 52 46 40 60 48 53 50 49 44 38 37 35 33 38 44 49 50 47 45 42 40 38 38 35 34 30
71 69 70 65 69 64 63 58 51 42 62 50 60 59 52 52 46 43 38 37 35 38 45 49 48 46 44 41 39 38 37 36 33
76 74 72 76 70 69 67 60 58 56 60 51 33 42 30 33 28 36 40 41 37 39 42 43 45 45 43 41 41 39 38 37 36
82 80 77 76 80 73 72 72 51 56 55 52 46 42 35 41 39 45 41 45 41 38 38 39 40 39 39 40 41 40 39 39 40
79 80 81 80 82 79 76 82 79 65 54 61 59 52 42 47 47 51 50 48 48 42 39 37 42 42 42 42 41 40 42 44 44
70 80 82 84 82 85 84 86 78 72 67 58 54 66 53 51 50 47 54 55 53 47 40 35 35 38 41 41 40 41 41 40 40
51 66 81 82 84 84 88 89 87 75 75 66 63 69 50 50 56 55 61 60 53 48 48 44 42 43 39 36 37 37 35 35 40